Location: Banios
(43.0451°N, 0.2335°E)
Time: 09:32:36
(UTC+00:00)

A-11 Canister half - Pass Details

Date: 13 May 2021
Orbit: 1527 x 1681 km, 47.3° (Epoch: 22 June)

Event Time Altitude Azimuth Distance (km) Brightness Sun altitude
Rises 09:04:14 0° 234° (SW) 4,708 11.3 46.5°
Reaches altitude 10° 09:07:15 10° 232° (SW) 3,743 10.9 47.0°
Maximum altitude 09:16:43 75° 149° (SSE) 1,647 10.5 48.6°
Drops below altitude 10° 09:26:33 10° 67° (ENE) 3,875 11.6 50.2°
Sets 09:29:44 0° 66° (ENE) 4,882 12.0 50.7°
